• In Uzbekistan
  • List of Countries
  • For 7 days
  • Water Temperature
  • Satellite Maps
  • Weather Map
  • Weather Widgets
  • user-avatar
    Login

    Hourly Weather Hrazdan

    Today, 24 June, Saturday

    Time Temperature Precipitation Wind Pressure Humidity
    00:00 +8°C° 0 mm 1 mps 613 mmHg 92%
    01:00 +8°C° 0 mm 1 mps 613 mmHg 93%
    02:00 +7°C° 0 mm 1 mps 613 mmHg 93%
    03:00 +9°C° 0 mm 1 mps 613 mmHg 95%
    04:00 +10°C° 0 mm 1 mps 613 mmHg 93%
    05:00 +11°C° 0 mm 1 mps 614 mmHg 92%
    06:00 +11°C° 0 mm 1 mps 614 mmHg 90%
    07:00 +13°C° 0 mm 1 mps 614 mmHg 81%
    08:00 +15°C° 0 mm 1 mps 615 mmHg 72%
    09:00 +19°C° 0 mm 1 mps 616 mmHg 61%
    10:00 +20°C° 0 mm 1 mps 616 mmHg 55%
    11:00 +21°C° 0 mm 1 mps 616 mmHg 49%
    12:00 +23°C° 0 mm 1 mps 617 mmHg 43%
    13:00 +23°C° 0 mm 1 mps 616 mmHg 42%
    14:00 +24°C° 0 mm 1 mps 616 mmHg 41%
    15:00 +24°C° 0 mm 2 mps 616 mmHg 40%
    16:00 +23°C° 0 mm 1 mps 615 mmHg 45%
    17:00 +22°C° 0 mm 1 mps 615 mmHg 50%
    18:00 +21°C° 0 mm 1 mps 614 mmHg 55%
    19:00 +18°C° 0.1 mm 1 mps 614 mmHg 65%
    20:00 +14°C° 0.1 mm 1 mps 613 mmHg 75%
    21:00 +12°C° 0.1 mm 1 mps 612 mmHg 84%
    22:00 +12°C° 0 mm 1 mps 612 mmHg 86%
    23:00 +12°C° 0 mm 1 mps 612 mmHg 89%

    Tomorrow, 25 June, Sunday

    Time Temperature Precipitation Wind Pressure Humidity
    00:00 +12°C° 0 mm 1 mps 613 mmHg 91%
    01:00 +12°C° 0.1 mm 1 mps 613 mmHg 92%
    02:00 +11°C° 0.1 mm 1 mps 613 mmHg 92%
    03:00 +11°C° 0.1 mm 1 mps 612 mmHg 93%
    04:00 +12°C° 0 mm 1 mps 613 mmHg 90%
    05:00 +12°C° 0 mm 1 mps 613 mmHg 87%
    06:00 +13°C° 0 mm 1 mps 614 mmHg 84%
    07:00 +15°C° 0.2 mm 1 mps 614 mmHg 74%
    08:00 +18°C° 0.2 mm 1 mps 615 mmHg 65%
    09:00 +21°C° 0.2 mm 1 mps 616 mmHg 55%
    10:00 +22°C° 0.3 mm 1 mps 616 mmHg 52%
    11:00 +23°C° 0.3 mm 1 mps 616 mmHg 49%
    12:00 +24°C° 0.3 mm 1 mps 616 mmHg 46%
    13:00 +24°C° 0.3 mm 1 mps 616 mmHg 47%
    14:00 +24°C° 0.3 mm 1 mps 616 mmHg 47%
    15:00 +23°C° 0.3 mm 2 mps 616 mmHg 48%
    16:00 +21°C° 0.2 mm 2 mps 615 mmHg 51%
    17:00 +20°C° 0.2 mm 2 mps 615 mmHg 55%
    18:00 +19°C° 0.2 mm 2 mps 615 mmHg 59%
    19:00 +17°C° 0.1 mm 2 mps 614 mmHg 67%
    20:00 +14°C° 0.1 mm 1 mps 614 mmHg 76%
    21:00 +12°C° 0.1 mm 1 mps 614 mmHg 85%
    22:00 +11°C° 0 mm 1 mps 614 mmHg 85%
    23:00 +11°C° 0 mm 1 mps 614 mmHg 85%

    Day after tomorrow, 26 June, Monday

    Time Temperature Precipitation Wind Pressure Humidity
    00:00 +10°C° 0 mm 1 mps 614 mmHg 85%
    01:00 +10°C° 0 mm 1 mps 614 mmHg 85%
    02:00 +10°C° 0 mm 1 mps 614 mmHg 85%
    03:00 +9°C° 0 mm 1 mps 614 mmHg 85%
    04:00 +10°C° 0 mm 1 mps 614 mmHg 82%
    05:00 +11°C° 0 mm 1 mps 615 mmHg 80%
    06:00 +12°C° 0 mm 1 mps 615 mmHg 77%
    07:00 +15°C° 0 mm 1 mps 616 mmHg 67%
    08:00 +18°C° 0 mm 1 mps 617 mmHg 58%
    09:00 +21°C° 0 mm 1 mps 618 mmHg 49%
    10:00 +22°C° 0 mm 1 mps 618 mmHg 45%
    11:00 +23°C° 0 mm 2 mps 618 mmHg 42%
    12:00 +25°C° 0 mm 2 mps 619 mmHg 38%
    13:00 +25°C° 0 mm 2 mps 618 mmHg 39%
    14:00 +25°C° 0 mm 2 mps 618 mmHg 39%
    15:00 +25°C° 0 mm 2 mps 618 mmHg 39%
    16:00 +24°C° 0 mm 2 mps 617 mmHg 45%
    17:00 +23°C° 0 mm 2 mps 617 mmHg 50%
    18:00 +22°C° 0 mm 1 mps 617 mmHg 55%
    19:00 +20°C° 0 mm 1 mps 616 mmHg 65%
    20:00 +16°C° 0 mm 1 mps 616 mmHg 76%
    21:00 +13°C° 0 mm 1 mps 615 mmHg 87%
    22:00 +13°C° 0 mm 1 mps 615 mmHg 88%
    23:00 +12°C° 0 mm 1 mps 615 mmHg 89%

    27 June, Tuesday

    Time Temperature Precipitation Wind Pressure Humidity
    00:00 +11°C° 0 mm 1 mps 615 mmHg 90%
    01:00 +11°C° 0 mm 1 mps 615 mmHg 90%
    02:00 +11°C° 0 mm 1 mps 614 mmHg 91%
    03:00 +10°C° 0 mm 1 mps 614 mmHg 91%
    04:00 +12°C° 0 mm 1 mps 615 mmHg 88%
    05:00 +13°C° 0 mm 1 mps 615 mmHg 85%
    06:00 +14°C° 0 mm 1 mps 616 mmHg 82%
    07:00 +18°C° 0 mm 1 mps 617 mmHg 70%
    08:00 +21°C° 0 mm 1 mps 618 mmHg 58%
    09:00 +24°C° 0 mm 1 mps 618 mmHg 46%
    10:00 +25°C° 0 mm 1 mps 619 mmHg 42%
    11:00 +27°C° 0 mm 1 mps 619 mmHg 38%
    12:00 +28°C° 0 mm 1 mps 619 mmHg 34%
    13:00 +29°C° 0 mm 1 mps 619 mmHg 33%
    14:00 +29°C° 0 mm 2 mps 618 mmHg 32%
    15:00 +29°C° 0 mm 2 mps 618 mmHg 32%
    16:00 +28°C° 0 mm 1 mps 618 mmHg 39%
    17:00 +27°C° 0 mm 1 mps 617 mmHg 46%
    18:00 +25°C° 0 mm 1 mps 617 mmHg 53%
    19:00 +22°C° 0 mm 1 mps 616 mmHg 62%
    20:00 +19°C° 0 mm 1 mps 615 mmHg 72%
    21:00 +15°C° 0 mm 1 mps 614 mmHg 82%
    22:00 +15°C° 0 mm 1 mps 614 mmHg 84%
    23:00 +14°C° 0 mm 1 mps 614 mmHg 86%

    28 June, Wednesday

    Time Temperature Precipitation Wind Pressure Humidity
    00:00 +14°C° 0 mm 1 mps 614 mmHg 88%
    01:00 +14°C° 0 mm 1 mps 614 mmHg 88%
    02:00 +13°C° 0 mm 1 mps 613 mmHg 87%
    03:00 +13°C° 0 mm 1 mps 613 mmHg 87%
    04:00 +14°C° 0 mm 1 mps 614 mmHg 84%
    05:00 +15°C° 0 mm 1 mps 615 mmHg 81%
    06:00 +18°C° 0 mm 1 mps 615 mmHg 78%
    07:00 +20°C° 0 mm 1 mps 616 mmHg 67%
    08:00 +23°C° 0 mm 1 mps 617 mmHg 55%
    09:00 +26°C° 0 mm 1 mps 618 mmHg 44%
    10:00 +27°C° 0 mm 1 mps 618 mmHg 40%
    11:00 +28°C° 0 mm 1 mps 618 mmHg 36%
    12:00 +30°C° 0 mm 1 mps 618 mmHg 33%
    13:00 +30°C° 0.2 mm 1 mps 617 mmHg 35%
    14:00 +29°C° 0.2 mm 1 mps 617 mmHg 37%
    15:00 +29°C° 0.2 mm 2 mps 616 mmHg 39%
    16:00 +28°C° 0.4 mm 2 mps 616 mmHg 46%
    17:00 +26°C° 0.4 mm 2 mps 615 mmHg 53%
    18:00 +25°C° 0.4 mm 2 mps 615 mmHg 60%
    19:00 +21°C° 0.2 mm 2 mps 614 mmHg 67%
    20:00 +19°C° 0.2 mm 2 mps 614 mmHg 75%
    21:00 +16°C° 0.2 mm 2 mps 613 mmHg 82%
    22:00 +15°C° 0 mm 2 mps 613 mmHg 82%
    23:00 +15°C° 0 mm 1 mps 613 mmHg 83%

    29 June, Thursday

    Time Temperature Precipitation Wind Pressure Humidity
    00:00 +14°C° 0 mm 1 mps 613 mmHg 83%
    01:00 +14°C° 0 mm 1 mps 613 mmHg 83%
    02:00 +13°C° 0 mm 1 mps 613 mmHg 84%
    03:00 +13°C° 0 mm 1 mps 613 mmHg 84%
    04:00 +14°C° 0 mm 1 mps 613 mmHg 83%
    05:00 +15°C° 0 mm 1 mps 614 mmHg 81%
    06:00 +16°C° 0 mm 1 mps 614 mmHg 79%
    07:00 +19°C° 0 mm 1 mps 615 mmHg 70%
    08:00 +21°C° 0 mm 1 mps 616 mmHg 60%
    09:00 +23°C° 0 mm 1 mps 616 mmHg 51%
    10:00 +24°C° 0.1 mm 1 mps 616 mmHg 48%
    11:00 +26°C° 0.1 mm 2 mps 617 mmHg 44%
    12:00 +27°C° 0.1 mm 2 mps 617 mmHg 41%
    13:00 +27°C° 0.3 mm 2 mps 616 mmHg 42%
    14:00 +27°C° 0.3 mm 2 mps 616 mmHg 44%
    15:00 +26°C° 0.3 mm 2 mps 615 mmHg 45%
    16:00 +25°C° 0.3 mm 2 mps 615 mmHg 49%
    17:00 +24°C° 0.3 mm 2 mps 615 mmHg 52%
    18:00 +23°C° 0.3 mm 2 mps 614 mmHg 55%
    19:00 +20°C° 0.2 mm 2 mps 614 mmHg 64%
    20:00 +17°C° 0.2 mm 2 mps 613 mmHg 72%
    21:00 +14°C° 0.2 mm 2 mps 613 mmHg 81%
    22:00 +14°C° 0 mm 2 mps 612 mmHg 81%
    23:00 +13°C° 0 mm 1 mps 612 mmHg 81%
    Show more